Weather History for KIWA - August, 2014

Change the Weather History Date:

Tuesday, August 12, 2014

  Actual Average Record
Temperature  
Mean Temperature 84 °F -  
Max Temperature 96 °F 100 °F 116 °F (2012)
Min Temperature 73 °F 78 °F 71 °F (1999)
Cooling Degree Days 20    
Growing Degree Days 34 (Base 50)    
Moisture  
Dew Point 62 °F    
Average Humidity 48    
Maximum Humidity 94    
Minimum Humidity 21    
Precipitation  
Precipitation 0.00 in - - ()
Sea Level Pressure  
Sea Level Pressure 29.94 in    
Wind  
Wind Speed 6 mph (ESE)    
Max Wind Speed 28 mph    
Max Gust Speed 38 mph    
Visibility 14 miles    
Events Rain , Thunderstorm    
Averages and records for this station are not official NWS values.
T = Trace of Precipitation, MM = Missing Value Source: NWS Daily Summary

Daily Weather History Graph

Daily Weather History Graph

Search for Another Location

Airport or City:

Trip Planner

Search our weather history database for the weather conditions in past years. The results will help you decide how hot, cold, wet, or windy it might be!

Date:

Astronomy

Aug. 12, 2014 Rise Set
Actual Time 5:47 AM MST 7:15 PM MST
Civil Twilight 5:20 AM MST 7:41 PM MST
Nautical Twilight 4:49 AM MST 8:13 PM MST
Astronomical Twilight 4:16 AM MST 8:46 PM MST
Moon 8:36 PM MST (8/12) 7:59 AM MST (8/12)
Length of Visible Light 14h 21m
Length of Day
13h 28m
Waning Gibbous, 94% of the Moon is Illuminated
Aug 12
Waning Gibbous
Aug 17
Last Quarter
Aug 25
New
Sep 2
First Quarter
Sep 8
Full

Hourly Weather History & Observations

Time (MST) Temp. Heat Index Dew Point Humidity Pressure Visibility Wind Dir Wind Speed Gust Speed Precip Events Conditions
1:15 AM 87.8 °F 87.1 °F 59.0 °F 38% 29.93 in 10.0 mi ESE 4.6 mph - N/A   Clear
1:35 AM 87.8 °F 87.1 °F 59.0 °F 38% 29.92 in 10.0 mi SE 4.6 mph - N/A   Clear
1:55 AM 86.0 °F 86.1 °F 60.8 °F 43% 29.92 in 10.0 mi SSE 5.8 mph - N/A   Clear
2:15 AM 86.0 °F 86.1 °F 60.8 °F 43% 29.92 in 10.0 mi Calm Calm - N/A   Clear
2:35 AM 86.0 °F 85.4 °F 59.0 °F 40% 29.93 in 10.0 mi Calm Calm - N/A   Clear
2:55 AM 86.0 °F 85.4 °F 59.0 °F 40% 29.93 in 10.0 mi ESE 3.5 mph - N/A   Clear
3:15 AM 84.2 °F 83.8 °F 59.0 °F 42% 29.93 in 10.0 mi ESE 3.5 mph - N/A   Clear
3:35 AM 84.2 °F 84.4 °F 60.8 °F 45% 29.94 in 10.0 mi East 5.8 mph - N/A   Clear
3:55 AM 84.2 °F 84.4 °F 60.8 °F 45% 29.94 in 10.0 mi ESE 5.8 mph - N/A   Clear
4:15 AM 82.4 °F 82.9 °F 60.8 °F 48% 29.94 in 10.0 mi East 4.6 mph - N/A   Clear
4:35 AM 82.4 °F 82.9 °F 60.8 °F 48% 29.94 in 10.0 mi ESE 6.9 mph - N/A   Clear
4:47 AM 84.2 °F 85.0 °F 62.6 °F 48% 29.94 in 20.0 mi East 4.6 mph - N/A   Mostly Cloudy
5:55 AM 84.2 °F 84.4 °F 60.8 °F 45% 29.96 in 35.0 mi ESE 3.5 mph - N/A   Mostly Cloudy
6:47 AM 84.2 °F 85.0 °F 62.6 °F 48% 29.97 in 35.0 mi SE 4.6 mph - N/A   Mostly Cloudy
7:47 AM 89.6 °F 89.5 °F 60.8 °F 38% 29.97 in 35.0 mi South 6.9 mph - N/A   Mostly Cloudy
8:47 AM 93.2 °F 94.1 °F 62.6 °F 36% 29.98 in 35.0 mi SSE 10.4 mph - N/A   Mostly Cloudy
11:48 AM 93.2 °F 96.2 °F 66.2 °F 41% 29.98 in 35.0 mi SW 17.3 mph - N/A   Mostly Cloudy
12:47 PM 93.2 °F 94.1 °F 62.6 °F 36% 29.95 in 35.0 mi West 10.4 mph - N/A   Mostly Cloudy
3:30 PM 96.8 °F 97.1 °F 60.8 °F 30% 29.87 in 20.0 mi WSW 5.8 mph - N/A Thunderstorm Thunderstorm
3:47 PM 96.8 °F 97.1 °F 60.8 °F 30% 29.88 in 20.0 mi ESE 15.0 mph - N/A Thunderstorm Thunderstorm
4:00 PM 87.8 °F 91.4 °F 68.0 °F 52% 29.88 in - East 23.0 mph 38.0 mph N/A Thunderstorm Widespread Dust
4:06 PM 96.8 °F 97.1 °F 60.8 °F 30% 29.88 in 2.5 mi NE 11.5 mph 18.4 mph N/A Thunderstorm Thunderstorm
4:52 PM 80.6 °F 83.9 °F 69.8 °F 70% 29.94 in 5.0 mi ESE 27.6 mph 33.4 mph N/A Thunderstorm Thunderstorm
6:47 PM 73.4 °F - 71.6 °F 94% 29.94 in 20.0 mi East 8.1 mph - N/A Rain Light Rain
7:49 PM 75.2 °F - 69.8 °F 83% 29.97 in 20.0 mi Calm Calm - N/A   Overcast
8:49 PM 78.8 °F - 35.6 °F 21% 30.00 in 20.0 mi North 6.9 mph - N/A   Overcast
9:49 PM 78.8 °F - 71.6 °F 78% 30.01 in 20.0 mi North 6.9 mph - N/A   Mostly Cloudy
10:50 PM 78.8 °F - 69.8 °F 74% 30.00 in 20.0 mi Calm Calm - N/A   Mostly Cloudy
11:47 PM 78.8 °F - 71.6 °F 78% 30.00 in 20.0 mi NE 4.6 mph - N/A   Overcast